Weather History for KBIX - March, 2013

Change the Weather History Date:

Wednesday, March 27, 2013

  Actual Average Record
Temperature  
Mean Temperature 45 °F -  
Max Temperature 56 °F 71 °F 81 °F (2011)
Min Temperature 35 °F 52 °F 28 °F (1955)
Degree Days  
Heating Degree Days 20    
Moisture  
Dew Point 32 °F    
Average Humidity 58    
Maximum Humidity 80    
Minimum Humidity 36    
Precipitation  
Precipitation 0.00 in - - ()
Sea Level Pressure  
Sea Level Pressure 30.38 in    
Wind  
Wind Speed 7 mph (NNE)    
Max Wind Speed 12 mph    
Max Gust Speed -    
Visibility 10 miles    
Events      
Averages and records for this station are not official NWS values.
T = Trace of Precipitation, MM = Missing Value Source: NWS Daily Summary

Daily Weather History Graph

Daily Weather History Graph

Search for Another Location

Airport or City:

Trip Planner

Search our weather history database for the weather conditions in past years. The results will help you decide how hot, cold, wet, or windy it might be!

Date:

Astronomy

Mar. 27, 2013 Rise Set
Actual Time 6:50 AM CDT 7:11 PM CDT
Civil Twilight 6:26 AM CDT 7:35 PM CDT
Nautical Twilight 5:58 AM CDT 8:03 PM CDT
Astronomical Twilight 5:29 AM CDT 8:32 PM CDT
Moon 7:49 PM CDT (3/27) 6:45 AM CDT (3/27)
Length of Visible Light 13h 09m
Length of Day
12h 21m
Full, 100% of the Moon is Illuminated
Mar 27
Full
Apr 2
Last Quarter
Apr 10
New
Apr 18
First Quarter
Apr 25
Full

Hourly Weather History & Observations

Time (CDT) Temp. Windchill Dew Point Humidity Pressure Visibility Wind Dir Wind Speed Gust Speed Precip Events Conditions
12:58 AM 42.4 °F 37.0 °F 28.2 °F 57% 30.40 in 10.0 mi North 9.2 mph - N/A   Clear
1:58 AM 40.8 °F 35.0 °F 28.2 °F 61% 30.39 in 10.0 mi NNE 9.2 mph - N/A   Clear
2:58 AM 39.2 °F 35.0 °F 28.6 °F 66% 30.38 in 10.0 mi NNE 5.8 mph - N/A   Clear
3:58 AM 38.1 °F 32.3 °F 29.1 °F 70% 30.37 in 10.0 mi NNE 8.1 mph - N/A   Clear
4:58 AM 36.5 °F 31.8 °F 29.5 °F 76% 30.38 in 10.0 mi NNE 5.8 mph - N/A   Clear
5:58 AM 36.1 °F 31.4 °F 29.7 °F 77% 30.40 in 10.0 mi NE 5.8 mph - N/A   Clear
6:58 AM 35.6 °F 29.9 °F 28.9 °F 77% 30.42 in 10.0 mi NE 6.9 mph - N/A   Clear
7:58 AM 38.1 °F 33.7 °F 30.4 °F 74% 30.43 in 10.0 mi NE 5.8 mph - N/A   Clear
8:58 AM 45.0 °F 40.1 °F 26.6 °F 49% 30.45 in 10.0 mi East 9.2 mph - N/A   Clear
9:58 AM 48.6 °F - 25.7 °F 41% 30.46 in 10.0 mi East 8.1 mph - N/A   Clear
10:58 AM 50.7 °F - 26.2 °F 39% 30.46 in 10.0 mi Variable 2.3 mph - N/A   Clear
11:58 AM 53.2 °F - 26.6 °F 36% 30.44 in 10.0 mi SSW 9.2 mph - N/A   Clear
12:58 PM 54.0 °F - 29.1 °F 39% 30.42 in 10.0 mi SSW 10.4 mph - N/A   Clear
1:58 PM 54.9 °F - 30.6 °F 40% 30.39 in 10.0 mi SW 9.2 mph - N/A   Clear
2:58 PM 54.7 °F - 31.1 °F 41% 30.35 in 10.0 mi SSW 11.5 mph - N/A   Clear
3:58 PM 55.4 °F - 33.3 °F 43% 30.34 in 10.0 mi SW 10.4 mph - N/A   Clear
4:58 PM 55.6 °F - 35.4 °F 47% 30.32 in 10.0 mi SSW 11.5 mph - N/A   Clear
5:58 PM 54.7 °F - 34.7 °F 47% 30.32 in 10.0 mi SW 6.9 mph - N/A   Clear
6:58 PM 52.0 °F - 37.4 °F 58% 30.33 in 10.0 mi SW 10.4 mph - N/A   Clear
7:58 PM 50.4 °F - 36.0 °F 58% 30.32 in 10.0 mi WNW 2.3 mph - N/A   Clear
8:58 PM 48.4 °F - 37.2 °F 65% 30.32 in 10.0 mi Calm Calm - N/A   Clear
9:58 PM 49.3 °F - 42.3 °F 77% 30.33 in 10.0 mi Calm Calm - N/A   Clear
10:58 PM 47.1 °F - 41.0 °F 79% 30.34 in 10.0 mi Calm Calm - N/A   Clear
11:58 PM 45.1 °F - 39.4 °F 80% 30.34 in 10.0 mi Calm Calm - N/A   Clear